Find Starlink 37615

NORAD ID: 69030 Int'l Des: 2026-101 Owner: SPXS Country: US Constellation: starlink operational
LEOCIRCULARRETROGRADE

当前视图

正在加载3D地球...

About Starlink 37615

Starlink 37615 (NORAD 69030) is a starlink constellation satellite (v2 mini) launched May 6, 2026 by SPXS of US. It operates in LEO, CIRCULAR, RETROGRADE orbit with a mass of 575.00 kg.

即将过境

Passes for default location (London). Set your location on the main map for personalized predictions.

高度历史

Loading altitude history...

两行轨道根数

1 69030U 26101F 26235.08038243 .00016026 00000-0 49727-3 0 9991
2 69030 97.2865 88.9718 0001736 78.9127 281.2311 15.33471226 16828
Epoch: Aug 23, 2026 • Age: 28 hours

当前状态

高度 467.1 km
远地点 / 近地点 N/A
速度 7.63 km/s
星下点 12.77°N, 23.33°E
发射日期 May 6, 2026
运行时间 0.3 years
类型 internet

技术详情

分类 Payload
质量 575.00 kg
干质量 530.00 kg
总质量 575.00 kg
长度 0.30 m
直径 4.10 m
跨度 29.00 m
形状 Box + pan
制造商 SPXS
平台类型 Starlink V2MO
阶段状态 In Orbit
所有者/国家 SPXS/US

Most Searched